This is the latest recevied weather packets stored in our database for station/object N9EA. If no packets are shown the sender has not sent any weather packets the latest 10 day(s).
| Time | Temp. | Humidity | Pressure | Rain* | Wind** | Luminosity | Snow |
|---|---|---|---|---|---|---|---|
| 1777879828 | 12.22° C | 64% | 1004.3 hPa | 0 mm | - | 0 W/m² | - |
| 1777879526 | 11.67° C | 64% | 1004.5 hPa | 0 mm | - | 0 W/m² | - |
| 1777879221 | 11.11° C | 65% | 1004.6 hPa | 0 mm | - | 0 W/m² | - |
| 1777878919 | 11.11° C | 66% | 1004.6 hPa | 0 mm | - | 0 W/m² | - |
| 1777878616 | 10.56° C | 67% | 1004.5 hPa | 0 mm | - | 0 W/m² | - |
| 1777878314 | 11.11° C | 67% | 1004.6 hPa | 0 mm | - | 0 W/m² | - |
| 1777878009 | 11.11° C | 66% | 1004.7 hPa | 0 mm | - | 0 W/m² | - |
| 1777877705 | 11.67° C | 66% | 1004.7 hPa | 0 mm | - | 0 W/m² | - |
| 1777877403 | 11.67° C | 65% | 1004.6 hPa | 0 mm | - | 0 W/m² | - |
| 1777877100 | 12.22° C | 64% | 1004.7 hPa | 0 mm | - | 0 W/m² | - |
| 1777876797 | 12.78° C | 63% | 1004.8 hPa | 0 mm | - | 0 W/m² | - |
| 1777876494 | 13.33° C | 62% | 1005 hPa | 0 mm | - | 0 W/m² | - |
| 1777876185 | 13.33° C | 61% | 1004.7 hPa | 0 mm | - | 0 W/m² | - |
| 1777875882 | 13.33° C | 61% | 1004.8 hPa | 0 mm | - | 0 W/m² | - |
| 1777875578 | 13.33° C | 61% | 1005 hPa | 0 mm | - | 0 W/m² | - |
| 1777875274 | 13.33° C | 61% | 1005 hPa | 0 mm | - | 0 W/m² | - |
| 1777874971 | 13.89° C | 61% | 1005.2 hPa | 0 mm | - | 0 W/m² | - |
| 1777874667 | 13.89° C | 61% | 1005.2 hPa | 0 mm | - | 0 W/m² | - |
| 1777874363 | 13.89° C | 60% | 1005.3 hPa | 0 mm | - | 0 W/m² | - |
| 1777874061 | 13.89° C | 60% | 1005.3 hPa | 0 mm | - | 0 W/m² | - |
| 1777873760 | 13.89° C | 59% | 1005.2 hPa | 0 mm | - | 0 W/m² | - |
| 1777873455 | 14.44° C | 59% | 1005.3 hPa | 0 mm | - | 0 W/m² | - |
| 1777873153 | 14.44° C | 59% | 1005.6 hPa | 0 mm | - | 0 W/m² | - |
| 1777872849 | 14.44° C | 59% | 1005.5 hPa | 0 mm | - | 0 W/m² | - |
| 1777872548 | 14.44° C | 58% | 1005.5 hPa | 0 mm | - | 0 W/m² | - |
* Rain latest hour (hover to see other rain measurements)
** Current wind speed in m/s (hover to see current wind gust speed)